Station: Edithburgh  

  Atmospheric Gas Attenuation - ITU Rec 676-11   ----------------- dB/100km -----------------
Date Time Temp RH % AH g/m3 Dew Point Wind Direction Speed kph Gust kph Barometer mB Rainfall Since 9am 24GHz 47GHz 76GHz 122GHz 134GHz 241GHz
05/05 06:40 13.3 69 7.97 7.7 9 11 1022.4 0.4 18.3 25.4 37.9 99.3 91.5 314.0
05/05 06:30 13.5 68 7.95 7.7 9 15 1022.3 0.4 18.2 25.3 37.8 98.9 91.0 312.3
05/05 06:20 13.5 69 8.07 7.9 15 19 1022.3 0.4 18.5 25.5 38.2 100.1 92.5 317.8
05/05 06:10 13.7 69 8.17 8.1 11 13 1022.2 0.4 18.7 25.6 38.5 100.9 93.6 321.5
05/05 06:00 13.8 68 8.1 8 17 24 1022 0.4 18.5 25.4 38.2 100.0 92.5 317.9
05/05 05:50 13.9 68 8.15 8.1 17 20 1021.9 0.4 18.6 25.5 38.3 100.4 93.1 319.7
05/05 05:40 13.9 69 8.27 8.3 17 19 1021.9 0.4 18.9 25.7 38.8 101.7 94.6 325.2
05/05 05:30 13.9 70 8.39 8.5 15 22 1021.8 0.4 19.1 25.8 39.3 103.0 96.2 330.7
05/05 05:20 14.2 70 8.55 8.8 17 19 1021.7 0.4 19.5 26.0 39.8 104.3 97.9 336.8
05/05 05:10 14.1 71 8.62 8.9 19 22 1021.5 0.4 19.6 26.1 40.1 105.1 99.0 340.4
05/05 05:00 14.1 71 8.62 8.9 19 26 1021.4 0.4 19.6 26.1 40.1 105.1 99.0 340.4
05/05 04:50 14.2 72 8.79 9.2 19 22 1021.3 0.4 20.0 26.4 40.7 106.8 101.1 347.8
05/05 04:40 14.3 71 8.72 9.1 17 19 1021.2 0.4 19.8 26.2 40.4 105.9 100.0 344.1
05/05 04:30 13.9 75 8.99 9.5 15 20 1021.2 0.4 20.4 26.8 41.7 109.4 104.1 358.5
05/05 04:20 14 75 9.05 9.6 15 17 1021.1 0.4 20.5 26.9 41.9 109.9 104.8 360.8
05/05 04:10 13.9 78 9.35 10.1 11 17 1021.1 0.4 21.2 27.4 43.2 113.3 109.0 375.5
05/05 04:00 13.8 77 9.17 9.8 15 22 1021.1 0.4 20.8 27.1 42.5 111.5 106.7 367.4
05/05 03:50 14 75 9.05 9.6 19 20 1021.1 0.4 20.5 26.9 41.9 109.9 104.8 360.8
05/05 03:40 14.2 78 9.52 10.4 19 22 1021.1 0.4 21.5 27.6 43.7 114.8 110.9 382.2
05/05 03:30 14 77 9.29 10 19 24 1021.1 0.4 21.0 27.3 42.9 112.5 108.0 372.2
05/05 03:20 14.1 81 9.83 10.9 15 19 1021.1 0.4 22.2 28.1 45.1 118.4 115.3 397.5
05/05 03:10 14 81 9.77 10.8 17 19 1021.1 0.4 22.1 28.1 44.9 117.8 114.6 395.2
05/05 03:00 14.1 82 9.95 11.1 19 26 1021.1 0.4 22.5 28.3 45.6 119.7 117.0 403.4
05/05 02:50 13.9 86 10.31 11.6 13 15 1021.2 0.4 23.2 29.0 47.2 124.1 122.3 422.0
05/05 02:40 13.7 85 10.07 11.2 13 15 1021.2 0.4 22.7 28.7 46.3 121.7 119.3 411.3
05/05 02:30 13.9 85 10.19 11.4 17 20 1021.2 0.4 23.0 28.8 46.7 122.8 120.6 416.1
05/05 02:20 13.8 86 10.25 11.6 20 24 1021.3 0.4 23.1 29.0 47.0 123.6 121.6 419.7
05/05 02:10 13.7 88 10.42 11.7 17 19 1021.3 0.4 23.5 29.3 47.8 125.7 124.2 428.6
05/05 02:00 13.6 89 10.47 11.8 15 20 1021.2 0.4 23.6 29.4 48.1 126.5 125.1 431.6
05/05 01:50 13.6 90 10.59 12 9 9 1021.3 0.4 23.9 29.6 48.6 127.9 126.8 437.6
05/05 01:40 13.6 90 10.59 12 9 11 1021.3 0.4 23.9 29.6 48.6 127.9 126.8 437.6
05/05 01:30 13.6 90 10.59 12 15 19 1021.3 0.4 23.9 29.6 48.6 127.9 126.8 437.6
05/05 01:20 13.6 90 10.59 12 11 13 1021.2 0.4 23.9 29.6 48.6 127.8 126.8 437.6
05/05 01:10 13.5 89 10.41 11.7 7 7 1021.1 0.2 23.5 29.3 47.9 125.9 124.4 429.2
05/05 01:00 13.5 89 10.41 11.7 7 11 1021.1 0.2 23.5 29.3 47.9 125.9 124.4 429.2
05/05 00:50 13.3 89 10.28 11.5 7 9 1021.1 0.2 23.2 29.2 47.4 124.7 122.8 423.8
05/05 00:40 13.6 88 10.36 11.6 9 11 1021 0.2 23.4 29.2 47.6 125.2 123.5 426.1
05/05 00:30 13.8 88 10.49 11.8 13 20 1021 0.2 23.6 29.4 48.0 126.3 125.0 431.4
05/05 00:20 13.7 84 9.95 11 9 11 1020.9 0 22.5 28.5 45.8 120.3 117.5 405.4
05/05 00:10 13.6 82 9.65 10.7 7 9 1020.9 0 21.8 28.0 44.6 117.1 113.5 391.3
05/05 00:00 13.5 84 9.83 10.9 11 19 1020.9 0 22.2 28.3 45.4 119.3 116.2 400.6
04/05 23:50 13.8 83 9.89 10.9 13 15 1020.7 0 22.3 28.3 45.5 119.5 116.5 401.9
04/05 23:40 14 83 10.01 11.1 11 15 1020.7 0 22.6 28.5 45.9 120.5 117.9 406.7
04/05 23:30 14.1 82 9.95 11.1 13 19 1020.8 0 22.5 28.3 45.5 119.7 116.9 403.3
04/05 23:20 14 81 9.77 10.9 15 19 1020.7 0 22.1 28.1 44.8 117.8 114.6 395.0
04/05 23:10 14.1 81 9.83 11 15 19 1020.6 0 22.2 28.1 45.0 118.3 115.2 397.4
04/05 23:00 14.2 83 10.14 11.4 13 22 1020.5 0 22.9 28.6 46.3 121.6 119.4 411.9
04/05 22:50 14.3 81 9.95 11.2 11 13 1020.5 0 22.4 28.3 45.4 119.3 116.6 402.1
04/05 22:40 14.2 81 9.89 11.1 15 17 1020.5 0 22.3 28.2 45.2 118.8 115.9 399.7
04/05 22:30 13.8 82 9.77 10.8 11 19 1020.4 0 22.1 28.1 44.9 118.1 114.8 396.0
04/05 22:20 13.4 81 9.42 10.2 9 11 1020.4 0 21.4 27.6 43.7 114.7 110.6 381.1
04/05 22:10 13.4 81 9.42 10.2 11 13 1020.3 0 21.4 27.6 43.7 114.7 110.6 381.0
04/05 22:00 13.2 81 9.3 10 11 15 1020.3 0 21.1 27.5 43.3 113.7 109.2 376.2
04/05 21:50 13.6 79 9.3 10 9 11 1020.2 0 21.1 27.4 43.1 113.1 108.7 374.3
04/05 21:40 13.6 79 9.3 10 9 13 1020.2 0 21.1 27.4 43.1 113.1 108.7 374.3
04/05 21:30 14.1 79 9.59 10.5 13 19 1020.2 0 21.7 27.7 44.0 115.6 111.9 385.7
04/05 21:20 13.9 78 9.35 10.1 13 15 1020.1 0 21.2 27.4 43.1 113.2 108.9 375.2
04/05 21:10 14.3 76 9.34 10.1 13 15 1019.9 0 21.1 27.2 42.8 112.5 108.2 372.8
04/05 21:00 14.1 76 9.22 9.9 13 20 1019.9 0 20.9 27.1 42.5 111.5 106.8 368.0
04/05 20:50 14.4 74 9.15 9.8 17 20 1019.7 0 20.7 26.9 42.0 110.3 105.5 363.3
04/05 20:40 14.3 74 9.09 9.7 17 19 1019.6 0 20.6 26.8 41.8 109.7 104.8 360.9
04/05 20:30 14.5 73 9.08 9.7 15 22 1019.5 0 20.6 26.7 41.7 109.3 104.4 359.5
04/05 20:20 14.4 74 9.15 9.8 13 17 1019.4 0 20.7 26.8 42.0 110.2 105.5 363.2
04/05 20:10 14 75 9.05 9.6 13 17 1019.2 0 20.5 26.8 41.8 109.7 104.6 360.3
04/05 20:00 14.5 74 9.2 9.9 13 19 1019.1 0 20.8 26.9 42.1 110.6 106.0 365.0
04/05 19:50 14.6 72 9.01 9.6 11 11 1019 0 20.4 26.5 41.3 108.4 103.3 355.6
04/05 19:40 14.8 71 8.99 9.6 13 15 1018.9 0 20.4 26.4 41.1 107.9 102.7 353.7
04/05 19:30 14.8 71 8.99 9.6 15 26 1018.8 0 20.4 26.4 41.1 107.9 102.7 353.7
04/05 19:20 14.9 71 9.05 9.7 19 20 1018.6 0 20.5 26.5 41.3 108.4 103.4 356.0
04/05 19:10 14.9 72 9.18 9.9 20 22 1018.4 0 20.8 26.7 41.8 109.7 105.1 362.0
04/05 19:00 14.8 72 9.12 9.8 19 28 1018.4 0 20.6 26.6 41.6 109.2 104.4 359.6
04/05 18:50 14.7 73 9.19 9.9 17 19 1018.2 0 20.8 26.8 41.9 110.1 105.5 363.3
04/05 18:40 14.9 73 9.3 10.1 19 24 1018 0 21.0 26.9 42.3 111.0 106.7 367.5
04/05 18:30 14.7 74 9.32 10.1 17 22 1017.8 0 21.1 27.0 42.5 111.5 107.2 369.3
04/05 18:20 14.8 74 9.37 10.2 19 20 1017.6 0 21.2 27.0 42.6 111.9 107.7 371.1
04/05 18:10 15 73 9.36 10.2 19 20 1017.4 0 21.1 26.9 42.4 111.4 107.3 369.6
04/05 18:00 15.1 73 9.42 10.3 19 28 1017.3 0 21.3 27.0 42.6 111.9 107.9 371.9
04/05 17:50 15.1 72 9.29 10.1 17 19 1017.2 0 21.0 26.8 42.1 110.5 106.2 365.8
04/05 17:40 15.2 70 9.09 9.9 19 24 1017.1 0 20.6 26.4 41.2 108.2 103.4 356.1
04/05 17:30 15.5 70 9.25 10.1 20 28 1017 0 20.9 26.6 41.7 109.5 105.1 362.1
04/05 17:20 15.8 69 9.29 10.1 19 22 1016.9 0 21.0 26.6 41.7 109.5 105.2 362.5
04/05 17:10 16.2 68 9.38 10.3 17 22 1016.8 0 21.1 26.6 41.9 109.9 105.8 364.8
04/05 17:00 16.4 69 9.63 10.7 19 26 1016.7 0 21.7 26.9 42.7 112.3 108.8 375.4
04/05 16:50 16.6 71 10.03 11.3 20 24 1016.6 0 22.5 27.5 44.3 116.3 113.9 393.0
04/05 16:40 16.6 70 9.89 11.1 17 19 1016.6 0 22.2 27.3 43.7 114.8 112.0 386.5
04/05 16:30 16.6 69 9.75 10.9 20 30 1016.5 0 21.9 27.0 43.1 113.3 110.1 379.9
04/05 16:20 16.6 67 9.46 10.6 26 32 1016.3 0 21.3 26.6 41.9 110.2 106.3 366.5
04/05 16:10 17.3 67 9.87 11.1 26 32 1016.2 0 22.1 27.0 43.2 113.5 110.7 382.0
04/05 16:00 17.8 65 9.86 11.1 28 41 1016.2 0 22.1 26.9 42.9 112.7 109.9 379.1
04/05 15:50 18 65 9.98 11.3 32 33 1016 0 22.3 27.0 43.2 113.7 111.1 383.6
04/05 15:40 18 63 9.68 10.8 24 32 1015.9 0 21.7 26.5 42.1 110.5 107.2 369.9
04/05 15:30 18.2 63 9.79 11 30 39 1015.7 0 21.9 26.6 42.4 111.3 108.3 373.8
04/05 15:20 18.2 62 9.64 10.8 32 35 1015.5 0 21.6 26.4 41.8 109.7 106.4 367.0
04/05 15:10 18.5 63 9.97 11.5 26 32 1015.5 0 22.3 26.8 42.9 112.8 110.2 380.5
04/05 15:00 18.4 62 9.75 11 32 44 1015.4 0 21.8 26.5 42.1 110.6 107.5 371.0
04/05 14:50 18.3 62 9.69 10.9 37 43 1015.2 0 21.7 26.4 41.9 110.1 106.9 368.7
04/05 14:40 18.7 59 9.45 10.7 33 37 1015.2 0 21.2 25.9 40.8 107.1 103.3 356.1
04/05 14:30 18.3 61 9.54 10.7 35 46 1015.1 0 21.4 26.2 41.3 108.5 104.9 361.9
04/05 14:20 18.8 61 9.82 11.1 30 37 1015 0 21.9 26.4 42.1 110.7 107.8 372.2
04/05 14:10 18.1 66 10.2 11.8 32 41 1014.9 0 22.8 27.3 44.0 115.8 113.8 392.9

Last Refresh: 05-May-2026 06:48:04

Bureau of Meteorology